VIR109 EGCC-KATL

Flight info

Callsign VIR109
Flight time N/A
Altitude 34000
Route DCT ASMIM L975 WAL L10 PENIL M144 BAGSO DCT DOGAL/M085F340 DCT 55N020W 55N030W 55N040W 54N050W DCT NEEKO/N0493F340 N622E TAFFY/N0498F380 DCT KJOHN DCT ALB DCT ACOVE DCT DBABE Q448 PTW J48 MOL DCT FLASK OZZZI1
Aircraft A35K/H-SDE2E3GHIJ3J4J5LM1ORWXY/LB1D1

Departure

Time 2026-05-07 12:11
Airport Manchester Airport (EGCC)

Arrival

Time N/A
Airport Hartsfield Jackson Atlanta International Airport (KATL)
Time Latitude Longitude Altitude Speed Heading
2026-05-07 11:34 53.36635 -2.28257 262 ft 0 kts 315°
2026-05-07 11:53 53.36621 -2.28234 263 ft 4 kts 315°
2026-05-07 11:53 53.36605 -2.28206 262 ft 1 kts 315°
2026-05-07 11:53 53.36588 -2.28176 263 ft 4 kts 311°
2026-05-07 11:53 53.36570 -2.28142 262 ft 4 kts 309°
2026-05-07 11:54 53.36554 -2.28109 265 ft 2 kts 315°
2026-05-07 11:54 53.36538 -2.28083 265 ft 4 kts 315°
2026-05-07 11:54 53.36520 -2.28053 265 ft 2 kts 315°
2026-05-07 11:54 53.36523 -2.28057 265 ft 0 kts 315°
2026-05-07 11:57 53.36525 -2.28061 264 ft 4 kts 314°
2026-05-07 11:57 53.36551 -2.28148 262 ft 9 kts 267°
2026-05-07 11:58 53.36522 -2.28236 261 ft 9 kts 229°
2026-05-07 11:58 53.36474 -2.28315 261 ft 10 kts 225°
2026-05-07 11:58 53.36414 -2.28375 261 ft 10 kts 174°
2026-05-07 11:58 53.36358 -2.28306 261 ft 11 kts 138°
2026-05-07 11:59 53.36292 -2.28197 261 ft 17 kts 135°
2026-05-07 11:59 53.36208 -2.28055 261 ft 18 kts 135°
2026-05-07 11:59 53.36149 -2.27966 261 ft 0 kts 140°
2026-05-07 12:01 53.36149 -2.27965 261 ft 1 kts 140°
2026-05-07 12:01 53.36106 -2.27907 261 ft 13 kts 140°
2026-05-07 12:02 53.36053 -2.27887 261 ft 12 kts 194°
2026-05-07 12:02 53.35984 -2.27884 261 ft 0 kts 150°
2026-05-07 12:02 53.35961 -2.27866 261 ft 6 kts 157°
2026-05-07 12:02 53.35942 -2.27856 261 ft 0 kts 166°
2026-05-07 12:04 53.35900 -2.27848 261 ft 13 kts 172°
2026-05-07 12:04 53.35821 -2.27750 258 ft 16 kts 131°
2026-05-07 12:05 53.35728 -2.27639 254 ft 18 kts 157°
2026-05-07 12:05 53.35621 -2.27527 251 ft 18 kts 140°
2026-05-07 12:05 53.35586 -2.27476 250 ft 0 kts 140°
2026-05-07 12:07 53.35580 -2.27469 251 ft 7 kts 140°
2026-05-07 12:07 53.35467 -2.27315 254 ft 31 kts 141°
2026-05-07 12:08 53.35288 -2.27203 246 ft 29 kts 190°
2026-05-07 12:08 53.35185 -2.27238 238 ft 2 kts 191°
2026-05-07 12:08 53.35167 -2.27245 237 ft 0 kts 192°
2026-05-07 12:10 53.35126 -2.27259 239 ft 20 kts 192°
2026-05-07 12:10 53.34971 -2.27391 235 ft 26 kts 228°
2026-05-07 12:10 53.34858 -2.27633 230 ft 27 kts 231°
2026-05-07 12:10 53.34599 -2.28172 238 ft 101 kts 231°
2026-05-07 12:11 53.33987 -2.29432 241 ft 176 kts 233°
2026-05-07 12:11 53.33108 -2.31211 656 ft 216 kts 229°
2026-05-07 12:11 53.32331 -2.33675 976 ft 272 kts 255°
2026-05-07 12:11 53.32437 -2.37073 1572 ft 312 kts 282°
2026-05-07 12:12 53.32902 -2.40545 2755 ft 297 kts 270°
2026-05-07 12:12 53.32645 -2.43729 3884 ft 263 kts 251°
2026-05-07 12:12 53.32108 -2.46608 4597 ft 253 kts 249°
2026-05-07 12:12 53.31557 -2.49394 4944 ft 252 kts 250°
2026-05-07 12:13 53.31022 -2.52160 4996 ft 253 kts 250°
2026-05-07 12:13 53.30488 -2.54981 5005 ft 255 kts 250°
2026-05-07 12:13 53.30032 -2.57841 5005 ft 256 kts 258°
2026-05-07 12:13 53.30001 -2.60836 5006 ft 260 kts 272°
2026-05-07 12:14 53.30294 -2.63809 5127 ft 259 kts 279°
2026-05-07 12:14 53.30751 -2.66762 5527 ft 264 kts 283°
2026-05-07 12:14 53.31298 -2.69717 6335 ft 265 kts 284°